Location: ???????
(55.8930°N, 38.0586°E)
Time: 06:41:05
(UTC+00:00)

BlueWalker 3 - Pass Details

Date: 14 April 2024
Orbit: 482 x 494 km, 53.2° (Epoch: 22 May)

Event Time Altitude Azimuth Distance (km) Brightness Sun altitude
Exits shadow 00:25:48 29° 240° (WSW) 948 2.8 -14.9°
Maximum altitude 00:26:55 35° 204° (SSW) 821 2.5 -14.8°
Drops below altitude 10° 00:30:27 10° 137° (SE) 1,698 4.6 -14.5°
Sets 00:32:44 0° 128° (SE) 2,577 5.7 -14.2°
